Regional Weather Roundup
Issued by NWS

Home | Current Version | Previous Version | Graphics & Text | Print | Product List | Glossary On
Versions: 1 2 3 4 5 6 7 8 9 10 11 12 13 14 15 16 17 18 19 20 21 22 23 24 25 26 27 28 29 30 31 32 33 34 35 36 37 38 39 40 41 42 43 44 45 46 47 48 49 50
904
ASUS43 KIND 042309
RWRIN

WEATHER ROUNDUP FOR INDIANA
NATIONAL WEATHER SERVICE INDIANAPOLIS IN
700 PM EDT WED MAY 04 2016

NOTE: "FAIR" INDICATES FEW OR NO CLOUDS BELOW 12,000 FEET WITH NO
SIGNIFICANT WEATHER AND/OR OBSTRUCTIONS TO VISIBILITY.

* - STATION DOES NOT REPORT WEATHER SUCH AS PRECIPITATION OR FOG.

+ - STATION NOT QUALITY CONTROLLED BY THE NATIONAL WEATHER SERVICE.
    USE DATA WITH CAUTION...ESPECIALLY DEWPOINT AND RELATIVE
    HUMIDITY OBSERVATIONS.

INZ001>003-010>013-019-020-050000-
NORTHWEST INDIANA

CITY           SKY/WX    TMP DP  RH WIND       PRES   REMARKS
GARY /AIRPORT/ CLOUDY    46  43  87 N12G23    29.84R
KNOX *+        CLOUDY    41  34  75 N20G28    29.79S
LA PORTE +     LGT RAIN  42  40  92 N15G23    29.80R
MICHIGAN CITY+ RAIN      41  37  87 N12G26    29.81S
MONTICELLO +   CLOUDY    46  34  63 N16       29.80R
RENSSELAER +   CLOUDY    45  37  76 N9        29.82S
VALPARAISO     LGT RAIN  43  37  79 N12G20    29.81R

$$

LMZ046-743>745-050000-
SOUTHERN LAKE MICHIGAN

STATION/POSITION TIME  TEMP    WIND        PRES    WAVE
                       AIR SEA DIR/SP/G            HT
                 (UTC) (F)     (DEG/KT/KT) (MB)    (FT)
BURNS HARBOR     2200   44     360/ 14/ 21 1009.8R
MICHIGAN CITY    2200   43     340/ 22/ 24   N/A

$$

INZ004-005-014>016-021>024-050000-
NORTH CENTRAL INDIANA

CITY           SKY/WX    TMP DP  RH WIND       PRES   REMARKS
ELKHART        LGT RAIN  39  39 100 NW15G22   29.74S
GOSHEN         LGT RAIN  39  35  86 NW17G29   29.73R
LOGANSPORT +   CLOUDY    45  36  70 NW16G25   29.79S
PERU/GRISSOM   CLOUDY    46  36  67 NW15      29.76R
ROCHESTER +    DRIZZLE   45  37  76 N21G35    29.77R
SOUTH BEND     LGT RAIN  37  35  92 NW18G30   29.77R FOG
WARSAW +       DRIZZLE   39  36  87 NW18G26   29.74S

$$

INZ006>009-017-018-025>027-050000-
NORTHEAST INDIANA

CITY           SKY/WX    TMP DP  RH WIND       PRES   REMARKS
ANGOLA *+      CLOUDY    41  34  75 NW7       29.67S
AUBURN +       CLOUDY    43  36  75 W13       29.70R
FORT WAYNE     PTSUNNY   45  36  70 NW16G28   29.71R
HUNTINGTON +   CLOUDY    45  36  68 NW20G25   29.73R

$$

INZ028-029-035-036-043>045-051>053-050000-
WEST CENTRAL INDIANA

CITY           SKY/WX    TMP DP  RH WIND       PRES   REMARKS
CRAWFORDSVL +  RAIN      46  40  81 N10G17    29.80R
GREENCASTLE +  CLOUDY    50  41  71 NW9G16    29.80R
LAFAYETTE      CLOUDY    49  38  65 N13       29.80R
TERRE HAUTE    CLOUDY    55  40  56 NW14G21   29.80R

$$

INZ030>032-037>040-046>048-054>057-064-065-050000-
CENTRAL INDIANA

CITY           SKY/WX    TMP DP  RH WIND       PRES   REMARKS
CP ATTERBURY + CLOUDY    52  37  58 N18G28    29.77R
COLUMBUS       PTSUNNY   54  41  62 N16       29.76R
FRANKFORT +      N/A     50  31  47 N16G23    29.80S
GREENWOOD *+   CLOUDY    50  37  62 NW15      29.77R
INDIANAPOLIS   PTSUNNY   51  37  58 NW16G22   29.76R
-EAGLE CREEK   CLOUDY    50  38  63 N18       29.77R
KOKOMO *+      CLOUDY    46  34  61 NW23G29   29.77R
MARION +       CLOUDY    47  37  67 NW24G37   29.76R
SHELBYVILLE    PTSUNNY   53  37  54 NW15G25   29.75R
ZIONSVILLE +   CLOUDY    47  38  70 N21G28    29.78S

$$

INZ033-034-041-042-049-050-058-059-050000-
EAST CENTRAL INDIANA

CITY           SKY/WX    TMP DP  RH WIND       PRES   REMARKS
MUNCIE         CLOUDY    49  37  63 NW18      29.74R

$$

INZ060-061-067>069-081>083-085>088-050000-
SOUTHWEST INDIANA

CITY           SKY/WX    TMP DP  RH WIND       PRES   REMARKS
EVANSVILLE     PTSUNNY   57  43  59 NW14G26   29.80R
HUNTINGBURG *+ CLOUDY    59  43  55 N9G16     29.77S
WASHINGTON +   PTSUNNY   58  41  53 N20G30    29.77R

$$

INZ062-063-066-070>080-084-089>092-050000-
SOUTH CENTRAL AND SOUTHEAST INDIANA

CITY           SKY/WX    TMP DP  RH WIND       PRES   REMARKS
BEDFORD +      MOSUNNY   55  50  82 NW7       29.75R
BLOOMINGTON    LGT RAIN  53  39  59 N12G22    29.77R
MADISON *+     MOSUNNY   54  36  50 NW13G20   29.75R
NORTH VERNON + CLOUDY    54  45  71 N16G22    29.76R
SEYMOUR +      CLOUDY    55  41  58 N13       29.75R

$$





USA.gov is the U.S. government's official web portal to all federal, state and local government web resources and services.